STARLINK-34269

Last updated on Thu Jul 03 2025 00:02:07 GMT+0000 (Coordinated Universal Time)

1 64386U 25127S 25183.58335648 -.01562069 00000+0 -18742-1 0 9998 2 64386 43.0003 155.3666 0001340 275.9122 338.6045 15.63122260 4200
UTC large
Height (km)
Speed (km/s)
/
Latitude / Longitude
Inclination (degrees)
Orbital Period (minutes)
Azimuth
Elevation
Range (km)
Doppler Factor

Next 0 passes for location: London (51.5072 / 0.1276)

Sorry there are no passes over London.